{"data":{"norad_id":68282,"intl_designator":"2026-055W","name":"STARLINK-37160","alt_names":[],"object_type":"PAYLOAD","status":"ACTIVE","operator":null,"country":"US","launch_date":"2026-03-19","launch_site_code":"AFETR","launch_vehicle":null,"mission":null,"orbit_class":"UNKNOWN","rcs_meters":null,"size_class":null,"mass_kg":null,"dimensions":null,"purposes":["comms"],"wikipedia_slug":null,"has_3d_model":false,"image_url":null,"decayed_at":null,"tle_current":{"epoch":"2026-05-24T18:14:15.730656Z","epoch_age_seconds":91745,"freshness":"FRESH","line1":"1 68282U 26055W   26144.75990429  .00021055  00000+0  63242-3 0  9998","line2":"2 68282  53.1601 324.7694 0000901  94.6011 265.5094 15.34406016 11597","mean_motion":15.34406016,"eccentricity":9.01e-5,"inclination_deg":53.1601,"raan_deg":324.7694,"arg_perigee_deg":94.6011,"mean_anomaly_deg":265.5094,"bstar":0.00063242,"rev_number":1159,"period_min":93.847390129106,"perigee_km":462.06900135113,"apogee_km":463.3017175403,"semimajor_km":6840.8223594457,"source":"CELESTRAK","updated_at":"2026-05-25T13:38:21.894448Z"}}}